When you browse on this site, cookies collect data to enhance your experience and personalize the content and advertising you see.
Visit our Privacy Policy to learn more. By continuing to use the site, you agree to this use of cookies and data.
  • In Denmark
  • List of Countries
  • For 7 days
  • Water Temperature
  • Weather Map
  • Weather Widgets
  • user-avatar
    Login

    Hourly Weather Granada

    Today, 29 May, Friday

    Time Temperature Precipitation Wind Pressure Humidity
    00:00 +19°C° 0 mm 1 mps 703 mmHg 61%
    01:00 +19°C° 0 mm 1 mps 703 mmHg 60%
    02:00 +18°C° 0 mm 1 mps 703 mmHg 59%
    03:00 +18°C° 0 mm 1 mps 702 mmHg 58%
    04:00 +18°C° 0 mm 1 mps 702 mmHg 57%
    05:00 +19°C° 0 mm 1 mps 702 mmHg 56%
    06:00 +19°C° 0 mm 1 mps 702 mmHg 54%
    07:00 +21°C° 0 mm 1 mps 702 mmHg 49%
    08:00 +23°C° 0 mm 1 mps 703 mmHg 43%
    09:00 +24°C° 0 mm 1 mps 703 mmHg 37%
    10:00 +25°C° 0 mm 1 mps 703 mmHg 36%
    11:00 +27°C° 0 mm 2 mps 703 mmHg 34%
    12:00 +28°C° 0 mm 2 mps 703 mmHg 33%
    13:00 +28°C° 0 mm 2 mps 702 mmHg 32%
    14:00 +29°C° 0 mm 2 mps 702 mmHg 32%
    15:00 +29°C° 0 mm 2 mps 702 mmHg 31%
    16:00 +28°C° 0 mm 2 mps 701 mmHg 34%
    17:00 +27°C° 0 mm 2 mps 701 mmHg 37%
    18:00 +27°C° 0 mm 2 mps 701 mmHg 40%
    19:00 +25°C° 0 mm 2 mps 701 mmHg 46%
    20:00 +23°C° 0 mm 1 mps 701 mmHg 52%
    21:00 +21°C° 0 mm 1 mps 701 mmHg 58%
    22:00 +21°C° 0 mm 1 mps 701 mmHg 58%
    23:00 +20°C° 0 mm 1 mps 701 mmHg 59%

    Tomorrow, 30 May, Saturday

    Time Temperature Precipitation Wind Pressure Humidity
    00:00 +20°C° 0 mm 1 mps 701 mmHg 59%
    01:00 +19°C° 0 mm 1 mps 701 mmHg 60%
    02:00 +19°C° 0 mm 1 mps 700 mmHg 60%
    03:00 +19°C° 0 mm 1 mps 700 mmHg 60%
    04:00 +19°C° 0 mm 1 mps 700 mmHg 59%
    05:00 +20°C° 0 mm 1 mps 700 mmHg 58%
    06:00 +20°C° 0 mm 1 mps 700 mmHg 57%
    07:00 +22°C° 0 mm 1 mps 701 mmHg 50%
    08:00 +24°C° 0 mm 1 mps 701 mmHg 43%
    09:00 +25°C° 0 mm 2 mps 702 mmHg 37%
    10:00 +26°C° 0 mm 2 mps 702 mmHg 35%
    11:00 +27°C° 0 mm 2 mps 702 mmHg 33%
    12:00 +28°C° 0 mm 2 mps 701 mmHg 32%
    13:00 +29°C° 0 mm 3 mps 701 mmHg 32%
    14:00 +29°C° 0 mm 3 mps 701 mmHg 31%
    15:00 +30°C° 0 mm 3 mps 701 mmHg 31%
    16:00 +29°C° 0 mm 3 mps 700 mmHg 34%
    17:00 +28°C° 0 mm 3 mps 700 mmHg 37%
    18:00 +27°C° 0 mm 3 mps 699 mmHg 40%
    19:00 +25°C° 0 mm 2 mps 700 mmHg 43%
    20:00 +23°C° 0 mm 2 mps 700 mmHg 47%
    21:00 +21°C° 0 mm 2 mps 700 mmHg 50%
    22:00 +20°C° 0 mm 2 mps 700 mmHg 50%
    23:00 +21°C° 0 mm 1 mps 700 mmHg 49%

    Day after tomorrow, 31 May, Sunday

    Time Temperature Precipitation Wind Pressure Humidity
    00:00 +21°C° 0 mm 1 mps 700 mmHg 49%
    01:00 +20°C° 0 mm 1 mps 699 mmHg 49%
    02:00 +20°C° 0 mm 1 mps 699 mmHg 49%
    03:00 +19°C° 0 mm 1 mps 699 mmHg 49%
    04:00 +20°C° 0 mm 1 mps 699 mmHg 48%
    05:00 +20°C° 0 mm 1 mps 699 mmHg 46%
    06:00 +21°C° 0 mm 1 mps 699 mmHg 45%
    07:00 +22°C° 0 mm 1 mps 699 mmHg 41%
    08:00 +23°C° 0 mm 1 mps 700 mmHg 38%
    09:00 +24°C° 0 mm 1 mps 700 mmHg 34%
    10:00 +25°C° 0 mm 1 mps 700 mmHg 34%
    11:00 +25°C° 0 mm 2 mps 701 mmHg 35%
    12:00 +25°C° 0 mm 2 mps 701 mmHg 35%
    13:00 +26°C° 0 mm 2 mps 701 mmHg 35%
    14:00 +26°C° 0 mm 2 mps 701 mmHg 36%
    15:00 +26°C° 0 mm 2 mps 701 mmHg 37%
    16:00 +26°C° 0 mm 2 mps 701 mmHg 37%
    17:00 +26°C° 0 mm 2 mps 700 mmHg 37%
    18:00 +26°C° 0 mm 1 mps 700 mmHg 37%
    19:00 +24°C° 0 mm 1 mps 700 mmHg 42%
    20:00 +23°C° 0 mm 1 mps 700 mmHg 47%
    21:00 +21°C° 0 mm 1 mps 700 mmHg 52%
    22:00 +20°C° 0 mm 1 mps 700 mmHg 53%
    23:00 +20°C° 0 mm 1 mps 700 mmHg 54%

    1 June, Monday

    Time Temperature Precipitation Wind Pressure Humidity
    00:00 +17°C° 0 mm 0 mps 700 mmHg 55%
    01:00 +17°C° 0 mm 0 mps 700 mmHg 55%
    02:00 +17°C° 0 mm 0 mps 700 mmHg 56%
    03:00 +17°C° 0 mm 0 mps 700 mmHg 56%
    04:00 +17°C° 0 mm 0 mps 700 mmHg 55%
    05:00 +17°C° 0 mm 0 mps 700 mmHg 55%
    06:00 +18°C° 0 mm 0 mps 700 mmHg 55%
    07:00 +22°C° 0 mm 1 mps 700 mmHg 48%
    08:00 +24°C° 0 mm 1 mps 701 mmHg 41%
    09:00 +26°C° 0 mm 1 mps 701 mmHg 34%
    10:00 +27°C° 0 mm 2 mps 702 mmHg 32%
    11:00 +28°C° 0 mm 2 mps 702 mmHg 30%
    12:00 +29°C° 0 mm 3 mps 702 mmHg 28%
    13:00 +30°C° 0 mm 3 mps 702 mmHg 28%
    14:00 +30°C° 0 mm 3 mps 702 mmHg 28%
    15:00 +30°C° 0 mm 3 mps 702 mmHg 28%
    16:00 +29°C° 0 mm 3 mps 701 mmHg 30%
    17:00 +29°C° 0 mm 3 mps 701 mmHg 33%
    18:00 +28°C° 0 mm 2 mps 701 mmHg 36%
    19:00 +26°C° 0 mm 2 mps 701 mmHg 41%
    20:00 +24°C° 0 mm 1 mps 701 mmHg 46%
    21:00 +23°C° 0 mm 1 mps 701 mmHg 51%
    22:00 +22°C° 0 mm 1 mps 701 mmHg 52%
    23:00 +21°C° 0 mm 1 mps 701 mmHg 53%

    2 June, Tuesday

    Time Temperature Precipitation Wind Pressure Humidity
    00:00 +21°C° 0 mm 1 mps 701 mmHg 54%
    01:00 +20°C° 0 mm 1 mps 701 mmHg 54%
    02:00 +20°C° 0 mm 1 mps 701 mmHg 54%
    03:00 +18°C° 0 mm 0 mps 700 mmHg 54%
    04:00 +20°C° 0 mm 1 mps 701 mmHg 54%
    05:00 +21°C° 0 mm 1 mps 701 mmHg 53%
    06:00 +21°C° 0 mm 1 mps 701 mmHg 53%
    07:00 +23°C° 0 mm 1 mps 701 mmHg 46%
    08:00 +25°C° 0 mm 1 mps 702 mmHg 39%
    09:00 +28°C° 0 mm 1 mps 702 mmHg 32%
    10:00 +29°C° 0 mm 2 mps 702 mmHg 30%
    11:00 +30°C° 0 mm 2 mps 702 mmHg 28%
    12:00 +31°C° 0 mm 3 mps 703 mmHg 26%
    13:00 +31°C° 0 mm 3 mps 702 mmHg 26%
    14:00 +33°C° 0 mm 3 mps 702 mmHg 26%
    15:00 +33°C° 0 mm 3 mps 701 mmHg 25%
    16:00 +31°C° 0 mm 3 mps 701 mmHg 28%
    17:00 +30°C° 0 mm 3 mps 701 mmHg 30%
    18:00 +29°C° 0 mm 3 mps 700 mmHg 33%
    19:00 +27°C° 0 mm 2 mps 700 mmHg 37%
    20:00 +25°C° 0 mm 1 mps 700 mmHg 42%
    21:00 +23°C° 0 mm 1 mps 700 mmHg 47%
    22:00 +23°C° 0 mm 1 mps 700 mmHg 49%
    23:00 +22°C° 0 mm 1 mps 700 mmHg 51%

    3 June, Wednesday

    Time Temperature Precipitation Wind Pressure Humidity
    00:00 +21°C° 0 mm 1 mps 700 mmHg 53%
    01:00 +20°C° 0 mm 1 mps 699 mmHg 54%
    02:00 +18°C° 0 mm 0 mps 699 mmHg 54%
    03:00 +17°C° 0 mm 0 mps 699 mmHg 54%
    04:00 +18°C° 0 mm 0 mps 698 mmHg 55%
    05:00 +18°C° 0 mm 0 mps 698 mmHg 56%
    06:00 +18°C° 0 mm 0 mps 698 mmHg 57%
    07:00 +22°C° 0 mm 1 mps 699 mmHg 50%
    08:00 +24°C° 0 mm 1 mps 699 mmHg 43%
    09:00 +26°C° 0 mm 2 mps 699 mmHg 36%
    10:00 +27°C° 0 mm 3 mps 699 mmHg 34%
    11:00 +28°C° 0 mm 3 mps 699 mmHg 31%
    12:00 +29°C° 0 mm 4 mps 699 mmHg 29%
    13:00 +29°C° 0 mm 5 mps 698 mmHg 30%
    14:00 +29°C° 0 mm 5 mps 698 mmHg 31%
    15:00 +28°C° 0 mm 5 mps 697 mmHg 33%
    16:00 +27°C° 0 mm 5 mps 697 mmHg 36%
    17:00 +26°C° 0 mm 5 mps 696 mmHg 39%
    18:00 +25°C° 0 mm 4 mps 696 mmHg 42%
    19:00 +23°C° 0 mm 4 mps 696 mmHg 48%
    20:00 +21°C° 0 mm 3 mps 696 mmHg 54%
    21:00 +20°C° 0 mm 2 mps 696 mmHg 60%
    22:00 +19°C° 0 mm 2 mps 696 mmHg 66%
    23:00 +18°C° 0 mm 2 mps 696 mmHg 72%
    Show more